Regional Weather Roundup
Issued by NWS

Home | Current Version | Previous Version | Text Only | Print | Product List | Glossary Off
Versions: 1 2 3 4 5 6 7 8 9 10 11 12 13 14 15 16 17 18 19 20 21 22 23 24 25 26 27 28 29 30 31 32 33 34 35 36 37 38 39 40 41 42 43 44 45 46 47 48 49 50

000
ASUS43 KIND 252009
RWRIN

WEATHER ROUNDUP FOR INDIANA
NATIONAL WEATHER SERVICE INDIANAPOLIS IN
300 PM EST SAT FEB 25 2017

NOTE: "FAIR" INDICATES FEW OR NO CLOUDS BELOW 12,000 FEET WITH NO
SIGNIFICANT WEATHER AND/OR OBSTRUCTIONS TO VISIBILITY.

* - STATION DOES NOT REPORT WEATHER SUCH AS PRECIPITATION OR FOG.

+ - STATION NOT QUALITY CONTROLLED BY THE NATIONAL WEATHER SERVICE.
    USE DATA WITH CAUTION...ESPECIALLY DEWPOINT AND RELATIVE
    HUMIDITY OBSERVATIONS.

INZ001>003-010>013-019-020-252100-
NORTHWEST INDIANA

CITY           SKY/WX    TMP DP  RH WIND       PRES   REMARKS
GARY /AIRPORT/ CLOUDY    28  12  50 W22       29.90R WCI  15
KNOX *+        CLOUDY    28   0  29 W18G24    29.88S WCI  16
LA PORTE +     MOSUNNY   26  17  67 W16G24    29.87S WCI  14
MICHIGAN CITY+ LGT SNOW  27  19  74 W10G21    29.88R WCI  17
MONTICELLO +   CLOUDY    28  16  60 W21       29.91R WCI  15
RENSSELAER +     N/A     30  18  59 W24       29.91S WCI  16
VALPARAISO     CLOUDY    31  16  54 W18G28    29.88R WCI  19

$$

LMZ046-743>745-252100-
SOUTHERN LAKE MICHIGAN

STATION/POSITION TIME  TEMP    WIND        PRES    WAVE
                       AIR SEA DIR/SP/G            HT
                 (UTC) (F)     (DEG/KT/KT) (MB)    (FT)
BURNS HARBOR     1940   27     270/ 18/ 25 1012.2R
MICHIGAN CITY    1940   25     250/ 24/ 28   N/A

$$

INZ004-005-014>016-021>024-252100-
NORTH CENTRAL INDIANA

CITY           SKY/WX    TMP DP  RH WIND       PRES   REMARKS
ELKHART        LGT SNOW  25  18  74 W17       29.85R WCI  11
GOSHEN         CLOUDY    26  16  65 W21G26    29.84R WCI  12
LOGANSPORT +   FLURRIES  28  19  69 W17G24    29.91R WCI  16
PERU/GRISSOM   FLURRIES  27  19  73 W20       29.88R WCI  13
ROCHESTER +    PTSUNNY   30  18  59 W13G23    29.89R WCI  20
SOUTH BEND     CLOUDY    24  16  71 W13G20    29.86R WCI  12

$$

INZ006>009-017-018-025>027-252100-
NORTHEAST INDIANA

CITY           SKY/WX    TMP DP  RH WIND       PRES   REMARKS
ANGOLA *+      CLOUDY    25  19  80 W14       29.80R WCI  13
AUBURN +       CLOUDY    28  18  64 W16G26    29.84R WCI  17
FORT WAYNE     FLURRIES  27  17  66 W20G30    29.85R WCI  13
HUNTINGTON +   CLOUDY    26  16  66 W20G28    29.87R WCI  12
KENDALLVILLE + CLOUDY    26  17  71 W17G29    29.81R WCI  12

$$

INZ028-029-035-036-043>045-051>053-252100-
WEST CENTRAL INDIANA

CITY           SKY/WX    TMP DP  RH WIND       PRES   REMARKS
LAFAYETTE      CLOUDY    28  19  69 W13G24    29.93R WCI  17
TERRE HAUTE    CLOUDY    35  16  45 W18       29.99R WCI  24

$$

INZ030>032-037>040-046>048-054>057-064-065-252100-
CENTRAL INDIANA

CITY           SKY/WX    TMP DP  RH WIND       PRES   REMARKS
ANDERSON       CLOUDY    27  16  63 W17G29    29.92  WCI  14
CP ATTERBURY + CLOUDY    32  19  59 W13G25    29.96S WCI  22
FISHERS *+     CLOUDY    28  23  80 W13G21    29.94R WCI  18
FRANKFORT +    CLOUDY    30  21  69 W20G26    29.94R WCI  17
GREENWOOD *+   CLOUDY    32  19  60 W15G26    29.94S WCI  21
INDIANAPOLIS   PTSUNNY   31  17  56 W20       29.93S WCI  19
-EAGLE CREEK   CLOUDY    31  20  63 W18G29    29.93R WCI  19
KOKOMO +       FLURRIES  27  21  78 W23       29.91R WCI  12
MARION +       LGT SNOW  26  19  76 W23G29    29.91R WCI  11
MT COMFORT *+  CLOUDY    28  19  69 W15       29.92S WCI  17
SHELBYVILLE    CLOUDY    31  18  58 W22       29.93R WCI  18
ZIONSVILLE +   FLURRIES  27  21  78 W16G22    29.93R WCI  14

$$

INZ033-034-041-042-049-050-058-059-252100-
EAST CENTRAL INDIANA

CITY           SKY/WX    TMP DP  RH WIND       PRES   REMARKS
MUNCIE         FLURRIES  28  19  69 W18G30    29.90R WCI  15

$$

INZ060-061-067>069-081>083-085>088-252100-
SOUTHWEST INDIANA

CITY           SKY/WX    TMP DP  RH WIND       PRES   REMARKS
EVANSVILLE     SUNNY     41  17  38 W9G22     30.04S
HUNTINGBURG *+ PTSUNNY   39  19  45 W20       30.02R
WASHINGTON +   PTSUNNY   37  17  44 W18G24    30.01R

$$

INZ062-063-066-070>080-084-089>092-252100-
SOUTH CENTRAL AND SOUTHEAST INDIANA

CITY           SKY/WX    TMP DP  RH WIND       PRES   REMARKS
BEDFORD +      CLOUDY    32  18  55 W8G17     29.97S WCI  25
BLOOMINGTON    CLOUDY    32  18  56 W16       29.96R WCI  21
MADISON *+     CLOUDY    32  19  59 W16       29.98R WCI  21
NORTH VERNON + CLOUDY    32  19  59 W17       29.96R WCI  21
SEYMOUR +      CLOUDY    34  21  60 W20G26    29.98R WCI  22

$$




USA.gov is the U.S. government's official web portal to all federal, state and local government web resources and services.